Regional Weather Roundup
Issued by NWS

Home | Current Version | Previous Version | Text Only | Print | Product List | Glossary Off
Versions: 1 2 3 4 5 6 7 8 9 10 11 12 13 14 15 16 17 18 19 20 21 22 23 24 25 26 27 28 29 30 31 32 33 34 35 36 37 38 39 40 41 42 43 44 45 46 47 48 49 50

000
ASUS43 KMKX 272021
RWRWI

WISCONSIN REGIONAL WEATHER ROUNDUP
NATIONAL WEATHER SERVICE MILWAUKEE/SULLIVAN WI
300 PM CDT TUE SEP 27 2016

NOTE: "FAIR" INDICATES FEW OR NO CLOUDS BELOW 12,000 FEET WITH NO
SIGNIFICANT WEATHER AND/OR OBSTRUCTIONS TO VISIBILITY.

WIZ001-002-006>008-014>016-023>028-272100-
NORTHWEST WISCONSIN

CITY           SKY/WX    TMP DP  RH WIND       PRES   REMARKS
SUPERIOR ARPT  LGT RAIN  50  47  91 NW8       29.74R
ASHLAND        CLOUDY    51  46  83 NW10      29.69R
HAYWARD        LGT RAIN  49  46  90 VRB7      29.72S
SIREN          LGT RAIN  49  48  94 NW10      29.76S
CUMBERLAND     LGT RAIN  46  45  93 NW9       29.75R
RICE LAKE      RAIN      50  46  88 W12       29.76R
CHETEK         NOT AVBL
LADYSMITH      DRIZZLE   51  47  88 NW13G20   29.73S
EAU CLAIRE     LGT RAIN  51  47  86 W14       29.75R
MENOMONIE      LGT RAIN  51  51  99 W8        29.77R
NEW RICHMOND   LGT RAIN  50  45  81 NW13      29.78S
OSCEOLA        RAIN      51  46  84 NW13      29.81R
$$

WIZ003>005-009-010-017-018-272100-
NORTH CENTRAL WISCONSIN

CITY           SKY/WX    TMP DP  RH WIND       PRES   REMARKS
MANITOWISH WTR NOT AVBL
ARBOR VITAE    CLOUDY    52  48  87 NW12G21   29.65R
WOODRUFF       CLOUDY    52  48  87 NW12G21   29.65R
RHINELANDER    CLOUDY    50  48  93 W12       29.65R
EAGLE RIVER    CLOUDY    50  47  91 W16       29.63R
LAND O LAKES   DRIZZLE   48  46  91 NW12G18   29.64R
PHILLIPS       DRIZZLE   48  47  95 NW6       29.68S
TOMAHAWK       DRIZZLE   49  46  90 W12       29.67S
MEDFORD        LGT RAIN  48  48 100 W10G16    29.69S
MERRILL        LGT RAIN  49  48  94 W8        29.68R
$$

WIZ029-030-035-036-043>047-272100-
CENTRAL WISCONSIN

CITY           SKY/WX    TMP DP  RH WIND       PRES   REMARKS
WAUSAU         LGT RAIN  50  47  89 W14       29.68R
MOSINEE        RAIN      48  48 100 W14G22    29.71R
MARSHFIELD     LGT RAIN  52  45  77 W9        29.71R
STEVENS POINT  CLOUDY    50  44  80 W13G22    29.71S
WAUPACA        CLOUDY    57  45  64 W15G22    29.71R
WAUTOMA        CLOUDY    56  44  64 W14       29.72S
WISC RAPIDS    CLOUDY    54  45  71 W12       29.73R
CAMP DOUGLAS   CLOUDY    55  45  67 W12       29.73S
$$

WIZ011>013-019>022-031-037>040-048>050-272100-
NORTHEAST WISCONSIN

CITY           SKY/WX    TMP DP  RH WIND       PRES   REMARKS
ANTIGO         RAIN      48  47  97 W10G18    29.66S
SHAWANO        DRIZZLE   55  49  80 W10G17    29.67R
OCONTO         NOT AVBL
STURGEON BAY   LGT RAIN  52  48  87 W12       29.65R
GREEN BAY      CLOUDY    57  47  69 W8        29.66R
MANITOWOC      CLOUDY    56  46  69 MISG      29.69R
APPLETON       CLOUDY    54  43  66 W14G23    29.68R
CLINTONVILLE   NOT AVBL
OSHKOSH        CLOUDY    56  44  64 W7        29.70R
$$

WIZ032>034-041-042-053>061-272100-
SOUTHWEST WISCONSIN

CITY           SKY/WX    TMP DP  RH WIND       PRES   REMARKS
LA CROSSE      PTSUNNY   65  44  46 NW13      29.74F
SPARTA         CLOUDY    57  44  63 W9G18     29.75R
VIROQUA        PTSUNNY   63  40  42 W12G21    29.75S
BOSCOBEL       LGT RAIN  68  35  29 W14G30    29.75F
PRAIRIE DU CHI SUNNY     69  31  24 W14G22    29.75F
PLATTEVILLE    SUNNY     67  36  31 W18G30    29.76F
$$

WIZ056-057-062-063-064-067-068-272100-
SOUTH CENTRAL WISCONSIN

CITY           SKY/WX    TMP DP  RH WIND       PRES   REMARKS
REEDSBURG      NOT AVBL
BARABOO/DELLS  CLOUDY    57  42  55 NW7       29.73F
LONE ROCK      MOSUNNY   65  41  41 W15       29.74F
MINERAL POINT  SUNNY     64  32  29 W18G29    29.75S
MADISON        PTSUNNY   61  41  47 W12G18    29.73S
MIDDLETON      NOT AVBL
WATERTOWN      CLOUDY    58  44  58 NW14      29.73S
MONROE         SUNNY     64  36  34 W14G30    29.74F
JANESVILLE     MOSUNNY   68  37  32 W22G31    29.73F
$$

WIZ051-052-058>065-066-070>072-272100-
SOUTHEAST WISCONSIN

CITY           SKY/WX    TMP DP  RH WIND       PRES   REMARKS
MILWAUKEE      CLOUDY    62  42  47 W17G25    29.73S
WAUKESHA       CLOUDY    55  43  62 W17G23    29.74S
MILWAUKEE/TIMM CLOUDY    59  39  47 W17G24    29.73S
RACINE         CLOUDY    62  42  47 W10G23    29.74R
BURLINGTON     CLOUDY    65  39  39 W17G28    29.73R
KENOSHA        CLOUDY    64  42  44 W14       29.73R
FOND DU LAC    CLOUDY    56  44  64 W15G21    29.71S
SHEBOYGAN      CLOUDY    58  44  60 W13G21    29.70R
WEST BEND      CLOUDY    55  43  62 W15       29.72S
JUNEAU         CLOUDY    55  42  61 W13       29.74S
$$

LSZ147-162-272100-
LAKE SUPERIOR

STATION/POSITION TIME  TEMP    WIND        PRES    WAVE
                       AIR SEA DIR/SP/G            HT/PER
                 (UTC) (F)     (DEG/KT/KT) (MB)    (FT/S)
W MID LAKE BUOY  1950   51 47  290/ 10/ 10 1002.9R   3/ 5
DEVILS ISLAND    2000   52     290/ 13/ 15 1004.7R
SAXON HARBOR     1940   53     290/ 12/ 20 1004.7R
$$

LMZ867-665-643>646-272100-
LAKE MICHIGAN

STATION/POSITION TIME  TEMP    WIND        PRES    WAVE
                       AIR SEA DIR/SP/G            HT/PER
                 (UTC) (F)     (DEG/KT/KT) (MB)    (FT/S)
CHAMBERS ISLAND  1900   52     230/  6/ 11 1003.0R
N MID LAKE BUOY  1950   54 66  270/ 17/ 21 1002.1R   4/ 6
NORTHPORT PIER   1900   52     290/  8/ 16 1003.0R
SISTER BAY       1938   53     280/ 15/ 18   N/A
ALGOMA LAKESHORE 1947          320/  8/ 13   N/A
KEWAUNEE LAKESHO 1900   57     260/  9/ 17 1003.4S
SHEBOYGAN LAKESH 2000   57     260/ 16/ 19 1005.3S
PORT WASHINGTON  1900   60     280/  9/ 17 1006.8S
ATWATER BUOY     2000   58 53  260/ 16/ 17 1006.8R
MILWAUKEE LAKESH 1910   59     290/ 17/ 20   N/A
S MID LAKE BUOY  1950   60 70  300/ 16/ 19 1006.1R   4/ 5
KENOSHA   LAKESH 2000   65     270/ 10/ 19 1006.4S
$$

TC  - TEMPERATURE IN CELSIUS
VSB - VISIBILITY IN STATUTE MILES
WCI - WIND CHILL INDEX
HX  - HEAT INDEX





USA.gov is the U.S. government's official web portal to all federal, state and local government web resources and services.